Regional Weather Roundup
Issued by NWS

Home | Current Version | Previous Version | Graphics & Text | Print | Product List | Glossary On
Versions: 1 2 3 4 5 6 7 8 9 10 11 12 13 14 15 16 17 18 19 20 21 22 23 24 25 26 27 28 29 30 31 32 33 34 35 36 37 38 39 40 41 42 43 44 45 46 47 48 49 50
000
ASUS43 KIND 240059
RWRIN

WEATHER ROUNDUP FOR INDIANA
NATIONAL WEATHER SERVICE INDIANAPOLIS IN
800 PM EST THU FEB 23 2017

NOTE: "FAIR" INDICATES FEW OR NO CLOUDS BELOW 12,000 FEET WITH NO
SIGNIFICANT WEATHER AND/OR OBSTRUCTIONS TO VISIBILITY.

* - STATION DOES NOT REPORT WEATHER SUCH AS PRECIPITATION OR FOG.

+ - STATION NOT QUALITY CONTROLLED BY THE NATIONAL WEATHER SERVICE.
    USE DATA WITH CAUTION...ESPECIALLY DEWPOINT AND RELATIVE
    HUMIDITY OBSERVATIONS.

INZ001>003-010>013-019-020-240200-
NORTHWEST INDIANA

CITY           SKY/WX    TMP DP  RH WIND       PRES   REMARKS
GARY /AIRPORT/ LGT RAIN  39  37  93 NE9       29.78F
KNOX *+        CLOUDY    39  28  65 N12       29.75F
MICHIGAN CITY+ LGT RAIN  36  36 100 NE8       29.76F
RENSSELAER +   CLOUDY    43  41  93 NE10      29.74R

$$

LMZ046-743>745-240200-
SOUTHERN LAKE MICHIGAN

STATION/POSITION TIME  TEMP    WIND        PRES    WAVE
                       AIR SEA DIR/SP/G            HT
                 (UTC) (F)     (DEG/KT/KT) (MB)    (FT)
BURNS HARBOR     0040   37      60/ 16/ 18 1007.8F
MICHIGAN CITY    0030   36      40/  9/  9   N/A

$$

INZ004-005-014>016-021>024-240200-
NORTH CENTRAL INDIANA

CITY           SKY/WX    TMP DP  RH WIND       PRES   REMARKS
ELKHART        DRIZZLE   46  41  81 N5        29.78R
GOSHEN         LGT RAIN  49  43  80 E6        29.76F
SOUTH BEND     LGT RAIN  41  39  93 N9        29.78R

$$

INZ006>009-017-018-025>027-240200-
NORTHEAST INDIANA

CITY           SKY/WX    TMP DP  RH WIND       PRES   REMARKS
ANGOLA *+      MOCLDY    52  46  82 N6        29.75F
FORT WAYNE     CLOUDY    56  51  84 E3        29.75R
KENDALLVILLE + LGT RAIN  51  47  84 N5        29.77S

$$

INZ028-029-035-036-043>045-051>053-240200-
WEST CENTRAL INDIANA

CITY           SKY/WX    TMP DP  RH WIND       PRES   REMARKS
LAFAYETTE      CLOUDY    55  48  77 NE9       29.71S
TERRE HAUTE    CLOUDY    62  54  74 SE7       29.68S

$$

INZ030>032-037>040-046>048-054>057-064-065-240200-
CENTRAL INDIANA

CITY           SKY/WX    TMP DP  RH WIND       PRES   REMARKS
COLUMBUS       MOCLDY    59  57  94 SE9       29.73F
GREENWOOD *+   PTCLDY    63  56  78 SE6       29.73S
INDIANAPOLIS   MOCLDY    62  53  72 SE7       29.71S
-EAGLE CREEK   PTCLDY    65  53  65 S7        29.70S
KOKOMO +       CLOUDY    57  53  86 E8        29.73F
MT COMFORT *+  MOCLDY    61  54  77 S7        29.73S
SHELBYVILLE    MOCLDY    62  53  72 SE9       29.72F

$$

INZ033-034-041-042-049-050-058-059-240200-
EAST CENTRAL INDIANA

CITY           SKY/WX    TMP DP  RH WIND       PRES   REMARKS
MUNCIE         CLOUDY    59  53  80 E7        29.74S

$$

INZ060-061-067>069-081>083-085>088-240200-
SOUTHWEST INDIANA

CITY           SKY/WX    TMP DP  RH WIND       PRES   REMARKS
EVANSVILLE     PTCLDY    65  52  62 SE3       29.69S
HUNTINGBURG *+ MOCLDY    63  55  75 SE7       29.71S

$$

INZ062-063-066-070>080-084-089>092-240200-
SOUTH CENTRAL AND SOUTHEAST INDIANA

CITY           SKY/WX    TMP DP  RH WIND       PRES   REMARKS
BLOOMINGTON    PTCLDY    62  53  72 SE5       29.71S
MADISON *+     PTCLDY    63  54  72 SE5       29.77F
SEYMOUR +      MOCLDY    63  55  77 SE7       29.73F

$$





USA.gov is the U.S. government's official web portal to all federal, state and local government web resources and services.